Jaipur, India

4:08 AM IST on August 22, 2017 (GMT +0530)
Jaipur

Weather History for VIJP - October, 2012

Change the Weather History Date:

Monday, October 8, 2012

  Actual Average Record
Temperature  
Mean Temperature 82 °F -  
Max Temperature 93 °F - - ()
Min Temperature 70 °F - - ()
Cooling Degree Days 16    
Growing Degree Days 32 (Base 50)    
Moisture  
Dew Point 59 °F    
Average Humidity 50    
Maximum Humidity 73    
Minimum Humidity 28    
Precipitation  
Precipitation 0.00 in - - ()
Sea Level Pressure  
Sea Level Pressure 29.91 in    
Wind  
Wind Speed 1 mph ()    
Max Wind Speed 7 mph    
Max Gust Speed 17 mph    
Visibility 1.8 miles    
Events      
T = Trace of Precipitation, MM = Missing Value Source: Averaged Metar Reports

Daily Weather History Graph

Daily Weather History Graph

Search for Another Location

Airport or City:

Trip Planner

Search our weather history database for the weather conditions in past years. The results will help you decide how hot, cold, wet, or windy it might be!

Date:

Astronomy

Oct. 08, 2012 Rise Set
Actual Time 6:22 AM IST 6:05 PM IST
Civil Twilight 5:59 AM IST 6:28 PM IST
Nautical Twilight 5:32 AM IST 6:55 PM IST
Astronomical Twilight 5:05 AM IST 7:22 PM IST
Moon 12:07 AM IST (10/9) 1:01 PM IST (10/8)
Length of Visible Light 12h 29m
Length of Day
11h 42m
Waning Gibbous, 50% of the Moon is Illuminated
Oct 8
Waning Gibbous
Oct 8
Last Quarter
Oct 15
New
Oct 22
First Quarter
Oct 30
Full

Hourly Weather History & Observations

Time (IST) Temp. Heat Index Dew Point Humidity Pressure Visibility Wind Dir Wind Speed Gust Speed Precip Events Conditions
12:00 AM 75.2 °F - 59.0 °F 57% 29.92 in 1.6 mi Calm Calm - N/A   Haze
1:00 AM 73.4 °F - 59.0 °F 61% 29.92 in 1.6 mi Calm Calm - N/A   Haze
2:00 AM 73.4 °F - 59.0 °F 61% 29.89 in 1.6 mi Calm Calm - N/A   Haze
2:30 AM 73.4 °F - 59.0 °F 61% 29.89 in 1.6 mi Calm Calm - N/A   Haze
3:00 AM 73.4 °F - 60.8 °F 65% 29.89 in 1.6 mi Calm Calm - N/A   Haze
4:00 AM 73.4 °F - 60.8 °F 65% 29.89 in 1.6 mi Calm Calm - N/A   Haze
5:00 AM 73.4 °F - 60.8 °F 65% 29.92 in 1.6 mi Calm Calm - N/A   Haze
5:30 AM 73 °F - 62 °F 59% 29.85 in 1 mi Calm Calm - -   Haze
6:00 AM 69.8 °F - 60.8 °F 73% 29.92 in 1.6 mi Calm Calm - N/A   Haze
6:30 AM 69.8 °F - 60.8 °F 73% 29.92 in 1.6 mi Calm Calm - N/A   Haze
7:00 AM 69.8 °F - 60.8 °F 73% 29.92 in 1.6 mi Calm Calm - N/A   Haze
7:30 AM 73.4 °F - 60.8 °F 65% 29.95 in 1.6 mi Calm Calm - N/A   Haze
8:00 AM 77.0 °F - 60.8 °F 57% 29.95 in 1.6 mi Calm Calm - N/A   Haze
8:30 AM 82 °F - 61 °F 38% 29.89 in 1 mi Calm Calm - -   Haze
9:00 AM 84.2 °F 84.4 °F 60.8 °F 45% 29.98 in 1.6 mi Calm Calm - N/A   Haze
10:00 AM 87.8 °F 87.6 °F 60.8 °F 40% 29.98 in 1.9 mi ESE 5.8 mph - N/A   Haze
10:30 AM 87.8 °F 87.6 °F 60.8 °F 40% 29.98 in 2.5 mi East 5.8 mph - N/A   Haze
11:00 AM 89.6 °F 89.5 °F 60.8 °F 38% 29.95 in 2.5 mi East 5.8 mph - N/A   Haze
11:30 AM 89.6 °F 87.7 °F 55.4 °F 31% 29.95 in 2.5 mi East 5.8 mph 17.3 mph N/A   Haze
12:00 PM 91.4 °F 89.4 °F 55.4 °F 29% 29.95 in 2.5 mi East 5.8 mph - N/A   Haze
1:00 PM 93.2 °F 91.3 °F 55.4 °F 28% 29.92 in 2.5 mi ENE 6.9 mph - N/A   Haze
2:00 PM 93.2 °F 91.3 °F 55.4 °F 28% 29.89 in 2.5 mi ENE 3.5 mph - N/A   Haze
3:00 PM 93.2 °F 91.3 °F 55.4 °F 28% 29.86 in 2.5 mi SSE 4.6 mph - N/A   Haze
5:00 PM 91.4 °F 89.9 °F 57.2 °F 31% 29.83 in 2.5 mi Variable 3.5 mph - N/A   Haze
6:00 PM 89.6 °F 88.1 °F 57.2 °F 33% 29.86 in 2.5 mi Calm Calm - N/A   Haze
8:00 PM 80.6 °F 81.5 °F 60.8 °F 51% 29.89 in 1.9 mi Calm Calm - N/A   Haze
8:30 PM 80 °F - 59 °F 38% 29.81 in 1 mi Calm Calm - -   Haze
9:00 PM 80.6 °F 81.5 °F 60.8 °F 51% 29.89 in 1.9 mi Calm Calm - N/A   Haze
10:00 PM 78.8 °F - 60.8 °F 54% 29.89 in 1.9 mi Calm Calm - N/A   Haze
11:00 PM 78.8 °F - 60.8 °F 54% 29.89 in 1.9 mi Calm Calm - N/A   Haze
11:30 PM 78 °F - 60 °F 43% 29.82 in 1 mi Calm Calm - -   Haze